Location: Northam
(31.6525°S, 116.6655°E)
Time: 23:13:51
(UTC+08:00)

Tiangong - Visible Passes

Search period start: 25 September 2022 00:00
Search period end: 05 October 2022 00:00
Orbit: 377 x 383 km, 41.5° (Epoch: 24 September)

Date Brightness Start Highest point End Pass type
(mag) Time Alt. Az. Time Alt. Az. Time Alt. Az.
25 Sep -1.9 19:02:05 10° WSW 19:05:15 68° NNW 19:07:21 19° NE visible
26 Sep 0.3 19:38:32 10° W 19:40:33 16° NW 19:41:40 14° NNW visible
27 Sep -0.6 18:36:36 10° WSW 18:39:30 33° NW 18:42:23 10° NNE visible
